FLOCK 1E-14

Last updated on July 31, 2016, 1:37 a.m. UTC

1 40741U 98067GT  16212.79152589  .12874842  12389-4  29159-3 0  9996
2 40741  51.6101 145.0511 0017155 239.5802 120.7977 16.44799109 59891

Satellite is not in orbit.